Regional Weather Roundup
Issued by NWS Newport/Morehead, NC

Current Version | Previous Version | Graphics & Text | Print | Product List | Glossary Off
Versions: 1 2 3 4 5 6 7 8 9 10 11 12 13 14 15 16 17 18 19 20 21 22 23 24 25 26 27 28 29 30 31 32 33 34 35 36 37 38 39 40 41 42 43 44 45 46 47 48 49 50

000
ASUS42 KMHX 280822
RWRMHX
WEATHER ROUNDUP FOR EASTERN NORTH CAROLINA
NATIONAL WEATHER SERVICE NEWPORT/MOREHEAD CITY NC
300 AM EST FRI NOV 28 2014

NOTE: "FAIR" INDICATES FEW OR NO CLOUDS BELOW 12,000 FEET
WITH NO SIGNIFICANT WEATHER AND/OR OBSTRUCTIONS TO VISIBILITY

NCZ015>017-031-032-045>047-102-103-280900-
NORTH COAST

CITY           SKY/WX    TMP DP  RH WIND       PRES   REMARKS
EDENTON        MOCLDY    38  31  76 NW10      30.23R
ELIZABETH CITY MOCLDY    40  32  73 NW8       30.20S
KITTY HAWK     SUNNY     40  32  72 NW7       30.16R
MANTEO         CLEAR     40  31  70 NW10G17   30.19R

$$

NCZ045>047-081-094-103-104-280900-
CENTRAL COAST

CITY           SKY/WX    TMP DP  RH WIND       PRES   REMARKS
FRISCO         MOCLDY    41  32  70 NW13G20   30.18R
SWANQUARTER      N/A     37 N/A N/A NW12      30.18S

$$

NCZ095-097-098-100-101-280900-
SOUTHERN COAST

CITY           SKY/WX    TMP DP  RH WIND       PRES   REMARKS
BEAUFORT       CLEAR     38  28  67 N15       30.22R
CEDAR ISLAND     N/A     43 N/A N/A NW17G25   30.24S
JACKSONVILLE   CLEAR     35  27  72 NW8       30.26R
PINEY ISLAND   SUNNY     42  31  64 NW15G23   30.21R
WILMINGTON     CLEAR     34  30  85 NW7       30.27R


$$

NCZ011>013-027>030-043-044-078>080-089-090>093-098-280900-
COASTAL PLAIN

CITY           SKY/WX    TMP DP  RH WIND       PRES   REMARKS
AHOSKIE        PTCLDY    33  26  76 NW3       30.25R
CLINTON        CLEAR     35  28  78 NW3       30.29R
ELIZABETHTOWN  CLEAR     35  28  78 NW6       30.29R
GOLDSBORO      CLEAR     35  28  75 NW3       30.26R
GREENVILLE     MOCLDY    34  28  80 NW3       30.26R
HAVELOCK       CLEAR     37  26  64 NW13      30.24R
KENANSVILLE    CLEAR     33  28  83 NW3       30.29R
KINSTON        PTCLDY    34  25  69 NW6       30.27R
NEW BERN       CLEAR     37  26  64 NW5       30.25R
RICHLANDS      CLEAR     34  25  69 CALM      30.27R
ROCKY MOUNT    CLEAR     34  23  64 NW9       30.27R
WASHINGTON     CLEAR     33  27  78 NW3       30.25R
WHITEVILLE     CLEAR     35  30  80 CALM      30.29R

$$

AMZ130-135-150-152-154-156-158-170-250-252-270-ANZ085-086-088-633-658-670-280900-
MARINE OBSERVATIONS

STATION/POSITION TIME  TEMP    WIND        PRES    WAVE   SWELL
                       AIR SEA DIR/SP/G            HT/PER HT/PER
                 (UTC) (F)     (DEG/KT/KT) (MB)    (FT/S) (FT/S)
CHESAPEAKE LIGHT 0800   42     330/ 25/ 28 1022.1
64 E VA BEACH    0800   46 65  340/ 19/ 25 1019.8    6/ 6   2/14
DUCK             0800   41 53  320/ 18/ 23 1021.0
2 E DUCK         0800      54                N/A     5/ 6
10 NE DUCK       0800      57                N/A     6/ 6   2/14
OREGON INLET     0800   42 54  310/ 15/ 18 1021.7
13E OREGON INLT  0800      60                N/A     7/ 7   2/14
HATTERAS CG      0800   44 56  330/ 19/ 22 1022.2
DIAMOND BUOY     0800   46     320/ 21/ 25 1021.0    6/ 6   3/ 8
17 S OCRACOKE    NOT AVBL
CAPE LOOKOUT     0800   40     340/ 16/ 21 1022.8
BEAUFORT LAB     0800   40 56  340/ 14/ 19 1022.4
30 SE NEW RIVER  0800   46 65  340/ 19/ 25 1023.6    6/ 5   2/ 9
5 SE WRIGHTSVLE  0800   39 58  350/ 16/ 19 1024.9
225 S CAPE HAT   0715   60 73  320/ 23/ 29 1018.8   11/ 9   2/13
41 SE CHARLESTON 0800   52 72  360/ 19/ 23 1023.8    6/ 5   2/ 9

$$



USA.gov is the U.S. government's official web portal to all federal, state and local government web resources and services.